Tracking 32139 objects as of 18-Nov-2025
HD Live streaming from Space Station
objects crossing your sky now

STARLINK-31443

Track STARLINK-31443 now!
10-day predictions
STARLINK-31443 is classified as:


NORAD ID: 59393
Int'l Code: 2024-062V
Perigee: 484.1 km
Apogee: 485.7 km
Inclination: 53.2 °
Period: 94.2 minutes
Semi major axis: 6855 km
RCS: Unknown
Launch date: April 2, 2024
Source: United States (US)
Launch site: AIR FORCE WESTERN TEST RANGE (AFWTR)
Your satellite tracking list
Your tracking list is empty




NASA's NSSDC Master Catalog

Two Line Element Set (TLE):
1 59393U 24062V   25321.66799860 -.00007662  00000-0 -25353-3 0  9991
2 59393  53.1614  42.7981 0001194  92.8278 267.2859 15.29345757 92708
Source of the keplerian elements: AFSPC